User: anonymous   Login
Location: Laguna de la Cañada del Gallo
(40.3974°N, 5.2096°W)
Time: 19:44:33
(UTC+00:00)
Language:

Cosmos 2151 Rocket - Orbit

View from above orbital plane
View from above orbital plane
View from above satellite
View from above satellite

Ground track
Ground track

The orbit data is extracted from the following two-line orbital elements,

1 21423U 91042B   24166.52157096  .00000663  00000-0  82895-4 0  9993
2 21423  82.4937  93.5478 0017866 155.7952 204.4105 14.80792323759337
Epoch (UTC): 14 June 2024 12:31:03
Eccentricity: 0.0017866
inclination: 82.4937°
perigee height: 614 km
apogee height: 639 km
right ascension of ascending node: 93.5478°
argument of perigee: 155.7952°
revolutions per day: 14.80792323
mean anomaly at epoch: 204.4105°
orbit number at epoch: 75933

The dashed part of the orbit path shows where the satellite is in the earth's shadow,  

DLR